Air Resources Laboratory banner image
Air Resources Laboratory web site National Oceanic and Atmospheric Administration (NOAA)

co roundup


Office: BOU

ASUS45 KBOU 190910
RWRCO

WEATHER ROUNDUP FOR COLORADO
NATIONAL WEATHER SERVICE DENVER/BOULDER CO
200 AM MST MON NOV 19 2018

NOTE: "FAIR" INDICATES FEW OR NO CLOUDS BELOW 12000 FEET WITH NO
SIGNIFICANT WEATHER AND/OR OBSTRUCTIONS TO VISIBILITY.

COZ001>005-013-030-031-191000-
...NORTHWEST COLORADO...

CITY           SKY/WX    TMP DP  RH WIND       PRES   REMARKS
CRAIG          FAIR       9   5  84 SW3       30.25R
HAYDEN         FAIR      16   9  74 E9        30.25R WCI   4
MEEKER         FAIR      13   7  77 N3        30.25R
RANGELY        FAIR      15  11  85 CALM      30.26R
RABBIT EARS PA FAIR      14   3  62 W8        30.18R WCI   3
STEAMBOAT SPGS FAIR      10   8  94 CALM      30.24R
WALDEN         FAIR      14   0  52 SE5       30.19S WCI   6
$$

COZ006>008-011-191000-
...WEST CENTRAL VALLEYS...

CITY           SKY/WX    TMP DP  RH WIND       PRES   REMARKS
GRAND JUNCTION FAIR      26  10  50 E10       30.24S WCI  16
MONTROSE       FAIR      21  13  71 SE9       30.28R WCI  11
EAGLE          FAIR      15   7  70 CALM      30.28R
RIFLE          FAIR      17  11  77 CALM      30.27S
DELTA          FAIR      24  16  70 CALM      30.27R
NUCLA          FAIR      23  12  63 E7        30.27R WCI  15
$$

COZ017>023-064>068-191000-
...SOUTHWEST COLORADO...

CITY           SKY/WX    TMP DP  RH WIND       PRES   REMARKS
DURANGO        FAIR      17   9  70 NE3       30.20S
CORTEZ         FAIR      15   5  64 NE7       30.23R WCI   5
PAGOSA SPRINGS FAIR      18  12  77 CALM      30.21S
TELLURIDE      FAIR      23   9  54 SE6       30.24R WCI  16
WOLF CREEK PAS FAIR      23 -22  13 W3        30.27R
$$

COZ009-010-012-014-032>034-037-058>063-191000-
...CENTRAL COLORADO...

CITY           SKY/WX    TMP DP  RH WIND       PRES   REMARKS
ASPEN          FAIR      14   7  73 SW6       30.22R WCI   5
BUENA VISTA    FAIR      25   0  34 NW9       30.16S WCI  16
COPPER MTN     FAIR      19 -20  16 W15       30.19S WCI   5
BERTHOUD PASS  FAIR       7  -6  56 N17G30    30.15S WCI -12
COTTONWOOD PAS FAIR      28 -33   6 W9G17     30.16R WCI  20
GUNNISON       FAIR      13   9  84 E5        30.26R WCI   5
GRANBY         FAIR       7   5  89 CALM      30.24R
KREMMLING      FAIR       9   5  85 CALM      30.26R
LEADVILLE      FAIR       9 -12  38 NE6       30.18S WCI  -1
MONARCH PASS   FAIR      14   3  62 SW13G21   30.30R WCI   0
SALIDA         FAIR      31   4  32 NW12      30.24R WCI  22
SUNLIGHT       FAIR      19 -11  25 SW6       30.26S WCI  11
WILKERSON PASS FAIR      23 -18  15 N12G22    30.18R WCI  12
$$

COZ069>075-191000-
...SAN LUIS VALLEY/SANGRE DE CRISTO MOUNTAINS...

CITY           SKY/WX    TMP DP  RH WIND       PRES   REMARKS
ALAMOSA        FAIR      14   9  80 W6        30.18R WCI   5
DEL NORTE      FAIR      23   4  43 NW13      30.19R WCI  12
LA VETA PASS   NOT AVBL
SAGUACHE       FAIR      23   9  54 CALM      30.19R
$$

COZ035-036-038>040-191000-
...NORTHERN COLORADO FRONT RANGE...

CITY           SKY/WX    TMP DP  RH WIND       PRES   REMARKS
DENVER INTL AP FAIR      26  21  81 SW9       30.10R WCI  17
AURORA         PTCLDY    25  15  65 S7        30.11R WCI  17
FRONT RANGE AP FAIR      26  18  72 S7        30.11R WCI  19
ERIE MUNI ARPT FAIR      22  21  95 CALM      30.16R
BOULDER MUN AP FAIR      30  27  86 W6        30.11R WCI  24
CENTENNIAL     FAIR      25  14  63 S3        30.10R
BROOMFIELD     FAIR      28  28 100 CALM      30.11R
FORT COLLINS   FAIR      27  25  92 SW3       30.11R
LONGMONT       FAIR      27  24  88 CALM      30.13R
$$

COZ041-046-047-076>085-087-088-191000-
...PIKES PEAK/PALMER DIVIDE AND SOUTHERN FOOTHILLS...

CITY           SKY/WX    TMP DP  RH WIND       PRES   REMARKS
COLO. SPRINGS  FAIR      27  13  55 N8        30.10R WCI  19
A. F. ACADEMY  FAIR      21  10  63 N9        30.09R WCI  11
SCHRIEVER AFB  NOT AVBL
CHEYENNE MTN   FAIR      32  10  40 W3        30.05R
ELLICOTT         N/A    N/A N/A N/A E13       30.08R
FALCON         FAIR      32   3  29 N9        30.11R WCI  24
FORT CARSON    FAIR      25  16  68 N13       30.08R WCI  14
LIMON          FAIR      19  14  81 N6        30.11R WCI  11
MONUMENT HILL  FAIR      30   3  31 CALM      30.11R
CANON CITY     FAIR      34  19  55 NW13      30.08R WCI  25
WALSENBURG     NOT AVBL
TRINIDAD       FAIR      26  19  74 W8        30.07S WCI  18
$$

COZ042>045-048>051-090-091-191000-
...NORTHEAST COLORADO...

CITY           SKY/WX    TMP DP  RH WIND       PRES   REMARKS
GREELEY ARPT   FAIR      20  19  96 SW3       30.12R
AKRON          FAIR      26  16  65 NW15      30.09R WCI  14
BURLINGTON     FAIR      27  17  66 NW13      30.08R WCI  16
WRAY           FAIR      21  18  86 W5        30.10R WCI  15
YUMA           FAIR      23  18  80 W10       30.08R WCI  12
STERLING       FAIR      30  21  69 NW9       30.08R WCI  22
HOLYOKE        FAIR      34  21  60 NW10      30.08R WCI  26
FORT MORGAN      N/A     29  17  59 N14       30.10R WCI  19
$$

COZ086-089-092>099-191000-
...SOUTHEAST COLORADO...

CITY           SKY/WX    TMP DP  RH WIND       PRES   REMARKS
PUEBLO         MOCLDY    26  25  96 W7        30.09R FOG     WCI  18
LA JUNTA       MOCLDY    23  21  92 W10       30.11R FOG     WCI  12
LAMAR          FAIR      19  16  88 CALM      30.10R
SPRINGFIELD      N/A     17  16  95 W5        30.07R WCI  10
$$